FW2608 Weather Reports


time (UTC)temp
C
wind
direction
speed
KPH
gust
KPH
rain 1hr
cm
rain 24hr
cm
rain mn
cm
humidity
%
barometer
mb
20260503184641 28 353 4.8 9.7 0.00 0.00 0.00 43 1014.3
20260503183119 27 8 3.2 9.7 0.00 0.00 0.00 43 1014.5
20260503181535 27 325 1.6 6.4 0.00 0.00 0.00 43 1014.6
20260503174536 26 22 1.6 6.4 0.00 0.00 0.00 46 1015.0
20260503173037 26 40 1.6 6.4 0.00 0.00 0.00 50 1015.1
20260503171535 25 40 3.2 6.4 0.00 0.00 0.00 55 1015.2
20260503120142 6 212 1.6 4.8 0.00 0.00 0.00 96 1015.3
20260503110111 7 247 1.6 4.8 0.00 0.00 0.00 95 1015.5
20260503071533 11 247 0.0 0.0 0.00 0.00 0.00 92 1015.2
20260503070108 11 247 0.0 0.0 0.00 0.00 0.00 92 1015.2
20260503054643 13 258 0.0 3.2 0.00 0.00 0.00 87 1015.0
20260503044643 13 97 0.0 3.2 0.00 0.00 0.00 84 1014.6
20260503041535 14 56 1.6 3.2 0.00 0.00 0.00 82 1014.5
20260503040040 15 117 0.0 3.2 0.00 0.00 0.00 80 1014.3
20260503034532 16 157 0.0 0.0 0.00 0.00 0.00 78 1013.9
20260503033143 16 157 0.0 3.2 0.00 0.00 0.00 77 1013.5
20260503031535 17 58 1.6 4.8 0.00 0.00 0.00 75 1013.1
20260503030032 18 112 0.0 0.0 0.00 0.00 0.00 73 1012.8
20260503023152 20 120 1.6 4.8 0.00 0.00 0.00 68 1012.6
20260503021535 20 72 1.6 6.4 0.00 0.00 0.00 65 1012.5
20260503014534 22 22 1.6 3.2 0.00 0.00 0.00 59 1012.3
20260503013033 23 355 1.6 3.2 0.00 0.00 0.00 56 1012.4
20260503011536 24 20 3.2 6.4 0.00 0.00 0.00 52 1012.3
20260503004535 26 5 1.6 6.4 0.00 0.00 0.00 48 1012.3
20260503003143 26 44 1.6 6.4 0.00 0.00 0.00 48 1012.3
20260503000038 28 35 4.8 11.3 0.00 0.00 0.00 44 1012.4
20260502234532 27 11 1.6 6.4 0.00 0.00 0.00 45 1012.6
20260502231535 26 1 4.8 8.0 0.00 0.00 0.00 48 1013.0
20260502230042 26 353 3.2 6.4 0.00 0.00 0.00 49 1013.1
20260502224531 26 337 4.8 9.7 0.00 0.00 0.00 50 1013.5
20260502223036 26 341 4.8 9.7 0.00 0.00 0.00 51 1013.7
20260502221534 26 352 4.8 11.3 0.00 0.00 0.00 53 1013.9
20260502220039 25 359 4.8 11.3 0.00 0.00 0.00 55 1014.1
20260502214531 23 13 1.6 8.0 0.00 0.00 0.00 56 1014.4
20260502213143 23 355 3.2 11.3 0.00 0.00 0.00 57 1014.6
20260502211552 23 355 1.6 8.0 0.00 0.00 0.00 56 1014.8
20260502204532 20 147 0.0 8.0 0.00 0.00 0.00 65 1015.5
20260502203037 18 260 3.2 9.7 0.00 0.00 0.00 70 1015.5
20260502194532 17 311 3.2 11.3 0.00 0.00 0.00 69 1015.7
20260502193141 17 349 4.8 12.9 0.00 0.00 0.00 68 1016.3
20260502191645 18 346 4.8 11.3 0.00 0.00 0.00 68 1016.6
20260502190029 18 330 3.2 8.0 0.00 0.00 0.00 68 1016.9